PDT,Max TemperatureF,Mean TemperatureF,Min TemperatureF,Max Dew PointF,MeanDew PointF,Min DewpointF,Max Humidity, Mean Humidity, Min Humidity, Max Sea Level PressureIn, Mean Sea Level PressureIn, Min Sea Level PressureIn, Max VisibilityMiles, Mean VisibilityMiles, Min VisibilityMiles, Max Wind SpeedMPH, Mean Wind SpeedMPH, Max Gust SpeedMPH,PrecipitationIn, CloudCover, Events, WindDirDegrees
2013-10-1,60,54,48,48,45,43,83,75,55,30.12,30.02,29.93,10,10,6,15,10,20,0.08,7,Rain,156
2013-10-2,57,53,51,47,46,45,86,77,67,30.19,30.11,30.06,10,10,8,12,7,18,0.19,8,Rain,163
2013-10-3,59,52,48,47,46,42,86,77,58,30.46,30.32,30.19,10,10,7,6,3,,0.02,7,Rain,135
2013-10-4,66,53,42,47,43,39,93,77,40,30.50,30.45,30.36,10,7,0,4,0,,0.01,2,Fog,140
2013-10-5,69,56,44,48,45,42,93,71,39,30.36,30.27,30.14,10,10,0,7,2,,0.00,2,Fog,302
2013-10-6,73,58,44,50,46,40,93,69,31,30.13,29.99,29.88,10,8,1,8,3,,0.04,2,Rain,166
2013-10-7,62,58,54,51,47,43,86,73,54,30.02,29.96,29.91,10,10,7,15,10,23,0.10,6,Rain,181
2013-10-8,57,52,46,47,44,39,86,72,57,30.09,30.01,29.98,10,9,2,9,5,18,0.39,5,Rain-Thunderstorm,141
2013-10-9,60,49,41,44,41,37,89,76,53,30.15,30.09,29.96,10,10,10,6,1,,0.00,4,,162
2013-10-10,61,53,46,49,45,41,86,75,58,30.08,30.01,29.95,10,10,6,8,3,,0.03,8,Rain,151
2013-10-11,57,54,51,49,48,44,89,81,64,30.15,30.11,30.08,10,7,2,5,1,,0.53,8,Rain,207
2013-10-12,59,52,46,48,46,44,90,78,64,30.22,30.13,30.08,10,10,7,8,2,,0.06,6,Rain,320
2013-10-13,59,52,44,45,44,41,93,80,58,30.38,30.30,30.23,10,8,1,6,1,,0.00,4,,33
2013-10-14,61,50,41,45,43,37,96,81,51,30.44,30.40,30.37,10,6,0,6,1,,0.01,3,Fog,205
2013-10-15,61,52,44,47,45,41,100,84,57,30.40,30.31,30.19,10,6,0,5,1,,0.00,5,Fog,145
2013-10-16,55,50,46,48,46,44,90,81,69,30.21,30.19,30.16,10,9,5,7,2,,0.00,6,,69
2013-10-17,57,52,46,47,46,42,86,79,67,30.28,30.25,30.22,10,9,6,6,1,,0.01,5,,65
2013-10-18,55,50,46,47,45,42,93,86,74,30.25,30.22,30.16,10,5,0,6,1,,0.00,4,Fog,330
2013-10-19,52,48,44,46,45,43,93,88,80,30.20,30.17,30.15,10,3,0,4,1,,0.00,8,Fog,332
2013-10-20,52,50,48,46,45,44,87,83,76,30.22,30.19,30.16,10,6,2,6,2,,0.00,8,,25
2013-10-21,54,50,48,47,46,44,89,84,77,30.18,30.14,30.11,10,5,2,5,2,,0.00,8,,10
2013-10-22,55,51,48,47,46,46,93,86,77,30.13,30.09,30.04,10,4,0,6,2,,0.00,6,Fog,300
2013-10-23,57,52,46,47,46,44,93,89,69,30.06,30.03,29.99,10,2,0,5,1,,0.01,4,Fog,332
2013-10-24,51,48,46,47,46,44,93,90,82,30.14,30.06,30.04,5,1,0,5,1,,0.01,8,Fog,205
2013-10-25,54,49,44,47,46,42,93,86,75,30.32,30.25,30.15,10,6,2,8,3,,0.00,7,,132
2013-10-26,54,49,44,46,44,42,93,77,66,30.34,30.30,30.21,10,9,5,5,1,,0.01,8,Fog,72
2013-10-27,57,52,48,47,44,42,87,76,56,30.20,29.98,29.92,10,9,3,13,5,23,0.06,5,Rain,38
2013-10-28,57,52,45,44,35,28,90,57,33,29.96,29.93,29.90,10,10,10,16,3,26,0.00,2,,337
2013-10-29,57,46,36,37,34,31,86,67,44,30.04,30.01,29.96,10,10,10,7,3,,0.00,0,,148
2013-10-30,59,48,39,46,38,34,82,67,54,30.13,30.11,30.05,10,10,10,10,7,20,0.01,6,Rain,152
2013-10-31,57,53,51,50,47,41,86,78,64,30.27,30.19,30.11,10,10,10,9,5,,0.01,8,Rain,151